Location: *
(51.4660°N, 0.3360°W)
Time: 13:32:27
(UTC+00:00)

Cosmos 1954 Rocket - Pass Details

Date: 19 September 2019
Orbit: 753 x 781 km, 74.0° (Epoch: 14 October)

Event Time Altitude Azimuth Distance (km) Brightness Sun altitude
Rises 19:33:56 0° 336° (NNW) 3,250 8.0 -14.0°
Reaches altitude 10° 19:36:22 10° 340° (NNW) 2,315 7.1 -14.3°
Maximum altitude 19:41:34 61° 61° (ENE) 862 4.1 -15.1°
Enters shadow 19:44:50 22° 136° (SE) 1,605 5.1 -15.6°
